TCX27BC EGKK-LERS

Flight info

Callsign TCX27BC
Flight time N/A
Altitude 33000
Route MANUAL SIMBRIEF
Aircraft A321/M-SDE3FGHIRWY/LB1

Departure

Time 2026-04-14 14:08
Airport London Gatwick Airport (EGKK)

Arrival

Time N/A
Airport Reus Airport (LERS)
Time Latitude Longitude Altitude Speed Heading
2026-04-14 13:14 51.15529 -0.16586 210 ft 0 kts 348°
2026-04-14 13:56 51.15526 -0.16585 202 ft 2 kts 348°
2026-04-14 13:56 51.15509 -0.16579 213 ft 3 kts 343°
2026-04-14 13:56 51.15490 -0.16568 210 ft 3 kts 332°
2026-04-14 13:57 51.15474 -0.16551 215 ft 3 kts 302°
2026-04-14 13:57 51.15469 -0.16531 210 ft 1 kts 257°
2026-04-14 13:57 51.15471 -0.16522 211 ft 0 kts 256°
2026-04-14 14:02 51.15467 -0.16543 209 ft 8 kts 256°
2026-04-14 14:02 51.15445 -0.16687 211 ft 17 kts 247°
2026-04-14 14:02 51.15392 -0.16704 202 ft 10 kts 173°
2026-04-14 14:02 51.15290 -0.16664 211 ft 17 kts 167°
2026-04-14 14:03 51.15246 -0.16650 201 ft 0 kts 170°
2026-04-14 14:06 51.15245 -0.16649 210 ft 2 kts 170°
2026-04-14 14:06 51.15185 -0.16634 200 ft 14 kts 179°
2026-04-14 14:06 51.15133 -0.16707 199 ft 0 kts 254°
2026-04-14 14:07 51.15133 -0.16708 199 ft 0 kts 254°
2026-04-14 14:08 51.15101 -0.16910 204 ft 53 kts 256°
2026-04-14 14:08 51.14970 -0.17839 212 ft 116 kts 257°
2026-04-14 14:08 51.14751 -0.19361 246 ft 159 kts 250°
2026-04-14 14:08 51.14599 -0.20920 1012 ft 139 kts 254°
2026-04-14 14:09 51.14418 -0.22470 1449 ft 144 kts 248°
2026-04-14 14:09 51.14197 -0.24000 2051 ft 141 kts 249°
2026-04-14 14:09 51.13947 -0.25641 2222 ft 167 kts 249°
2026-04-14 14:09 51.13654 -0.27556 2455 ft 190 kts 250°
2026-04-14 14:10 51.13329 -0.29738 2731 ft 213 kts 252°
2026-04-14 14:10 51.12995 -0.32078 3428 ft 219 kts 252°
2026-04-14 14:10 51.12662 -0.34463 4257 ft 220 kts 253°
2026-04-14 14:10 51.12332 -0.36846 5080 ft 222 kts 253°
2026-04-14 14:11 51.11961 -0.39230 5878 ft 221 kts 245°
2026-04-14 14:11 51.11063 -0.41151 6623 ft 220 kts 216°
2026-04-14 14:11 51.09636 -0.42025 7304 ft 226 kts 186°
2026-04-14 14:11 51.08046 -0.41901 8019 ft 230 kts 179°
2026-04-14 14:12 51.06403 -0.41686 8472 ft 248 kts 178°
2026-04-14 14:12 51.04620 -0.41453 8951 ft 262 kts 178°
2026-04-14 14:12 51.02777 -0.41208 9623 ft 270 kts 178°
2026-04-14 14:12 51.00889 -0.40963 10346 ft 274 kts 177°
2026-04-14 14:13 50.98973 -0.40718 11062 ft 278 kts 179°
2026-04-14 14:13 50.97033 -0.40470 11701 ft 283 kts 178°
2026-04-14 14:13 50.95046 -0.40215 12345 ft 289 kts 179°
2026-04-14 14:13 50.93031 -0.39954 13020 ft 293 kts 179°
2026-04-14 14:14 50.90987 -0.39691 13687 ft 297 kts 179°
2026-04-14 14:14 50.88904 -0.39425 14282 ft 302 kts 179°
2026-04-14 14:14 50.86797 -0.39160 14853 ft 307 kts 179°
2026-04-14 14:14 50.84652 -0.38816 15415 ft 313 kts 173°
2026-04-14 14:15 50.82551 -0.37774 15991 ft 322 kts 158°
2026-04-14 14:15 50.80608 -0.35951 16569 ft 327 kts 149°
2026-04-14 14:15 50.78701 -0.33961 17168 ft 330 kts 149°
2026-04-14 14:15 50.76771 -0.31957 17741 ft 334 kts 150°
2026-04-14 14:16 50.74814 -0.29934 18301 ft 338 kts 150°
2026-04-14 14:16 50.72838 -0.27896 18800 ft 342 kts 150°
2026-04-14 14:16 50.70832 -0.25829 19256 ft 346 kts 149°
2026-04-14 14:17 50.66674 -0.21514 19677 ft 373 kts 149°
2026-04-14 14:17 50.64474 -0.19200 19798 ft 388 kts 148°
2026-04-14 14:17 50.62188 -0.16791 19926 ft 402 kts 148°
2026-04-14 14:17 50.59842 -0.14325 20271 ft 409 kts 148°
2026-04-14 14:18 50.57463 -0.11832 20705 ft 414 kts 148°
2026-04-14 14:18 50.55052 -0.09313 21151 ft 418 kts 148°
2026-04-14 14:18 50.52614 -0.06773 21581 ft 423 kts 148°
2026-04-14 14:18 50.50138 -0.04232 22022 ft 427 kts 152°
2026-04-14 14:19 50.47460 -0.02225 22433 ft 427 kts 163°
2026-04-14 14:19 50.44592 -0.01048 22840 ft 427 kts 174°
2026-04-14 14:19 50.41628 -0.00730 23184 ft 428 kts 186°
2026-04-14 14:19 50.38683 -0.01275 23559 ft 426 kts 196°
2026-04-14 14:20 50.35788 -0.02314 23970 ft 427 kts 197°
2026-04-14 14:20 50.32880 -0.03366 24330 ft 430 kts 197°
2026-04-14 14:20 50.29953 -0.04417 24655 ft 433 kts 197°
2026-04-14 14:20 50.27006 -0.05465 24979 ft 436 kts 197°
2026-04-14 14:21 50.23988 -0.06206 25284 ft 444 kts 187°
2026-04-14 14:21 50.20874 -0.06115 25582 ft 452 kts 176°
2026-04-14 14:21 50.17771 -0.05144 25873 ft 459 kts 165°
2026-04-14 14:21 50.14780 -0.03321 26176 ft 464 kts 158°
2026-04-14 14:22 50.11822 -0.01244 26479 ft 467 kts 158°
2026-04-14 14:22 50.08772 0.00509 26713 ft 469 kts 167°
2026-04-14 14:22 50.05598 0.01761 26947 ft 473 kts 168°
2026-04-14 14:22 50.02391 0.03003 27222 ft 476 kts 168°
2026-04-14 14:23 49.99170 0.04260 27499 ft 479 kts 168°
2026-04-14 14:23 49.95930 0.05536 27763 ft 481 kts 168°
2026-04-14 14:23 49.92676 0.06822 28034 ft 484 kts 168°
2026-04-14 14:23 49.89406 0.08112 28303 ft 487 kts 168°
2026-04-14 14:24 49.86181 0.09378 28553 ft 489 kts 168°
2026-04-14 14:24 49.82854 0.10676 28807 ft 492 kts 168°
2026-04-14 14:24 49.79529 0.11967 29055 ft 494 kts 168°
2026-04-14 14:24 49.76188 0.13266 29298 ft 497 kts 168°
2026-04-14 14:25 49.72828 0.14579 29526 ft 499 kts 168°
2026-04-14 14:25 49.69457 0.15899 29762 ft 501 kts 168°
2026-04-14 14:25 49.66074 0.17222 29994 ft 503 kts 167°
2026-04-14 14:25 49.62676 0.18575 30210 ft 505 kts 167°
2026-04-14 14:26 49.59266 0.19954 30396 ft 507 kts 167°
2026-04-14 14:26 49.55852 0.21347 30571 ft 509 kts 167°
2026-04-14 14:26 49.52431 0.22739 30796 ft 509 kts 167°
2026-04-14 14:26 49.49006 0.24121 31042 ft 509 kts 167°
2026-04-14 14:27 49.45576 0.25498 31281 ft 509 kts 167°
2026-04-14 14:27 49.42155 0.26866 31528 ft 509 kts 167°
2026-04-14 14:27 49.38722 0.28234 31787 ft 509 kts 167°
2026-04-14 14:27 49.35302 0.29597 32038 ft 509 kts 167°
2026-04-14 14:28 49.31869 0.30967 32286 ft 509 kts 167°
2026-04-14 14:28 49.28446 0.32343 32510 ft 509 kts 167°
2026-04-14 14:28 49.25023 0.33759 32744 ft 510 kts 167°
2026-04-14 14:28 49.21605 0.35205 32978 ft 510 kts 166°
2026-04-14 14:29 49.18188 0.36668 33136 ft 509 kts 166°
2026-04-14 14:29 49.14799 0.38124 33163 ft 504 kts 166°
2026-04-14 14:29 49.08059 0.40973 33158 ft 502 kts 167°
2026-04-14 14:30 49.01317 0.43783 33162 ft 502 kts 167°
2026-04-14 14:30 48.94565 0.46588 33164 ft 504 kts 166°
2026-04-14 14:31 48.87804 0.49401 33162 ft 503 kts 166°
2026-04-14 14:31 48.81092 0.52180 33161 ft 503 kts 166°
2026-04-14 14:32 48.74330 0.54934 33165 ft 503 kts 167°
2026-04-14 14:32 48.67549 0.57583 33169 ft 503 kts 167°
2026-04-14 14:33 48.60763 0.60202 33161 ft 504 kts 167°
2026-04-14 14:33 48.53977 0.62833 33165 ft 504 kts 167°
2026-04-14 14:34 48.43810 0.66892 33172 ft 504 kts 166°
2026-04-14 14:35 48.37051 0.69678 33166 ft 503 kts 166°
2026-04-14 14:35 48.30291 0.72448 33168 ft 503 kts 166°
2026-04-14 14:36 48.23525 0.75175 33166 ft 503 kts 166°
2026-04-14 14:36 48.16760 0.77836 33161 ft 503 kts 166°
2026-04-14 14:37 48.09980 0.80486 33163 ft 503 kts 166°
2026-04-14 14:37 48.03205 0.83133 33166 ft 504 kts 166°
2026-04-14 14:38 47.96420 0.85783 33181 ft 504 kts 166°
2026-04-14 14:38 47.89635 0.88421 33168 ft 504 kts 166°
2026-04-14 14:39 47.82847 0.91060 33163 ft 504 kts 166°
2026-04-14 14:39 47.76047 0.93701 33162 ft 505 kts 166°
2026-04-14 14:40 47.69245 0.96331 33162 ft 506 kts 166°
2026-04-14 14:40 47.62430 0.98967 33166 ft 506 kts 166°
2026-04-14 14:41 47.55618 1.01577 33164 ft 506 kts 166°
2026-04-14 14:41 47.48797 1.04186 33166 ft 506 kts 166°
2026-04-14 14:42 47.41907 1.06249 33170 ft 505 kts 179°
2026-04-14 14:42 47.36086 1.06804 33120 ft 505 kts 174°